Trenton, NJ

11:38 PM EDT on May 21, 2018 (GMT -0400)
Trenton Mercer

Weather History for KTTN - March, 2013

Change the Weather History Date:

Saturday, March 23, 2013

  Actual Average Record
Temperature  
Mean Temperature 38 °F 44 °F  
Max Temperature 46 °F 53 °F 81 °F (2012)
Min Temperature 30 °F 34 °F 13 °F (1934)
Degree Days  
Heating Degree Days 27 22  
Month to date heating degree days 602 571  
Since 1 July heating degree days 4203 4385  
Cooling Degree Days 0 0  
Month to date cooling degree days 0 0  
Year to date cooling degree days 0 0  
Moisture  
Dew Point 18 °F    
Average Humidity 46    
Maximum Humidity 58    
Minimum Humidity 33    
Precipitation  
Precipitation 0.00 in 0.12 in 1.62 in (1961)
Month to date precipitation 2.07 3.02  
Year to date precipitation 6.69 8.49  
Sea Level Pressure  
Sea Level Pressure 29.90 in    
Wind  
Wind Speed 9 mph (NW)    
Max Wind Speed 20 mph    
Max Gust Speed 28 mph    
Visibility 10 miles    
Events      
T = Trace of Precipitation, MM = Missing Value Source: NWS Daily Summary

Daily Weather History Graph

Daily Weather History Graph

Search for Another Location

Airport or City:

Astronomy

Mar. 23, 2013 Rise Set
Actual Time 6:57 AM EDT 7:14 PM EDT
Civil Twilight 6:30 AM EDT 7:41 PM EDT
Nautical Twilight 5:58 AM EDT 8:13 PM EDT
Astronomical Twilight 5:25 AM EDT 8:46 PM EDT
Moon 3:38 PM EDT (3/23) 4:32 AM EDT (3/23)
Length of Visible Light 13h 11m
Length of Day
12h 17m
Waxing Gibbous, 85% of the Moon is Illuminated
Mar 23
Waxing Gibbous
Mar 27
Full
Apr 3
Last Quarter
Apr 10
New
Apr 18
First Quarter

Hourly Weather History & Observations

Time (EDT) Temp. Windchill Dew Point Humidity Pressure Visibility Wind Dir Wind Speed Gust Speed Precip Events Conditions
12:53 AM 33.1 °F 24.9 °F 18.0 °F 54% 29.91 in 10.0 mi NW 10.4 mph - N/A   Clear
1:53 AM 32.0 °F 26.4 °F 18.0 °F 56% 29.91 in 10.0 mi WNW 5.8 mph - N/A   Clear
3:53 AM 30.9 °F 25.2 °F 18.0 °F 59% 29.89 in 10.0 mi WNW 5.8 mph - N/A   Clear
4:53 AM 30.9 °F 25.2 °F 18.0 °F 59% 29.89 in 10.0 mi NW 5.8 mph - N/A   Clear
5:53 AM 30.9 °F 23.5 °F 18.0 °F 59% 29.91 in 10.0 mi NW 8.1 mph - N/A   Clear
6:53 AM 30.0 °F 24.1 °F 18.0 °F 61% 29.92 in 10.0 mi WNW 5.8 mph - N/A   Clear
7:53 AM 32.0 °F 25.6 °F 18.0 °F 56% 29.92 in 10.0 mi WNW 6.9 mph - N/A   Clear
8:53 AM 35.1 °F 26.9 °F 19.0 °F 52% 29.92 in 10.0 mi NW 11.5 mph - N/A   Clear
9:53 AM 37.0 °F 29.8 °F 19.0 °F 48% 29.91 in 10.0 mi North 10.4 mph - N/A   Clear
10:53 AM 39.9 °F 33.4 °F 19.9 °F 45% 29.91 in 10.0 mi West 10.4 mph - N/A   Clear
11:53 AM 42.1 °F 36.6 °F 19.9 °F 41% 29.90 in 10.0 mi NW 9.2 mph 21.9 mph N/A   Clear
12:53 PM 44.1 °F 37.4 °F 19.9 °F 38% 29.89 in 10.0 mi NNW 13.8 mph 21.9 mph N/A   Scattered Clouds
1:53 PM 43.0 °F 36.0 °F 18.0 °F 37% 29.86 in 10.0 mi WNW 13.8 mph 25.3 mph N/A   Mostly Cloudy
2:53 PM 46.0 °F 39.6 °F 19.9 °F 35% 29.85 in 10.0 mi NNW 15.0 mph 23.0 mph N/A   Mostly Cloudy
3:53 PM 46.0 °F 40.2 °F 19.0 °F 34% 29.84 in 10.0 mi North 12.7 mph 21.9 mph N/A   Partly Cloudy
4:53 PM 45.0 °F 38.2 °F 18.0 °F 34% 29.85 in 10.0 mi NNW 15.0 mph 27.6 mph N/A   Partly Cloudy
5:53 PM 45.0 °F 38.5 °F 18.0 °F 34% 29.85 in 10.0 mi NNW 13.8 mph 23.0 mph N/A   Partly Cloudy
6:53 PM 44.1 °F 40.1 °F 17.1 °F 34% 29.87 in 10.0 mi NNW 6.9 mph - N/A   Mostly Cloudy
7:53 PM 42.1 °F 37.7 °F 17.1 °F 37% 29.89 in 10.0 mi NNW 6.9 mph 18.4 mph N/A   Partly Cloudy
8:53 PM 39.9 °F 36.7 °F 18.0 °F 41% 29.91 in 10.0 mi Variable 4.6 mph - N/A   Clear
9:53 PM 39.0 °F 34.0 °F 17.1 °F 41% 29.92 in 10.0 mi NNW 6.9 mph - N/A   Clear
10:53 PM 37.9 °F 30.9 °F 17.1 °F 43% 29.94 in 10.0 mi NNW 10.4 mph - N/A   Clear
11:53 PM 36.0 °F 28.0 °F 18.0 °F 48% 29.94 in 10.0 mi North 11.5 mph 21.9 mph N/A   Clear